Regional Weather Roundup
Issued by NWS

Home | Current Version | Previous Version | Text Only | Print | Product List | Glossary On
Versions: 1 2 3 4 5 6 7 8 9 10 11 12 13 14 15 16 17 18 19 20 21 22 23 24 25 26 27 28 29 30 31 32 33 34 35 36 37 38 39 40 41 42 43 44 45 46 47 48 49 50
000
ASUS44 KJAN 211810
RWRMS

MISSISSIPPI HOURLY WEATHER ROUNDUP
NATIONAL WEATHER SERVICE JACKSON MS
1200 PM CST TUE FEB 21 2017

NOTE: "FAIR: INDICATES FEW OR NO CLOUDS BELOW 12,000 FEET WITH NO
SIGNIFICANT WEATHER AND/OR OBSTRUCTIONS TO VISIBILITY.

MSZ001>002-007>008-010>013-018>021-025>028-034>036-211900-
NORTHWEST MISSISSIPPI

CITY           SKY/WX    TMP DP  RH WIND       PRES   REMARKS
BATESVILLE     RAIN      61  59  92 S5        29.91F
CLEVELAND      CLOUDY    63  61  94 SW9       29.88F
GREENWOOD      LGT RAIN  62  58  86 CALM      29.89F
6HR MIN TEMP:  60; 6HR MAX TEMP:  61; 6HR PCP:  0.32;

GREENVILLE     CLOUDY    63  56  78 SW10      29.88F
6HR MIN TEMP:  58; 6HR MAX TEMP:  64; 6HR PCP: TRACE;

OLIVE BRANCH   CLOUDY   N/A N/A N/A S9        29.89F
OXFORD         LGT RAIN  59  57  94 S8        29.92F
TUNICA         MOCLDY    63  59  88 S7        29.89F
WINONA         LGT RAIN  61  60  96 S9        29.90F
$$

MSZ003>006-009-014>017-022>024-029>033-037>039-211900-
NORTHEAST MISSISSIPPI

CITY           SKY/WX    TMP DP  RH WIND       PRES   REMARKS
COLUMBUS AFB   LGT RAIN  62  60  94 S9        29.93F
6HR MIN TEMP:  58; 6HR MAX TEMP:  62; 6HR PCP:  0.14;

CORINTH        LGT RAIN  63  59  88 SW8       29.92R
TUPELO         CLOUDY    61  58  90 SE8       29.93S
6HR MIN TEMP:  58; 6HR MAX TEMP:  62; 6HR PCP:  0.07;

$$

MSZ040-058-211900-
CENTRAL MISSISSIPPI

CITY           SKY/WX    TMP DP  RH WIND       PRES   REMARKS
JACKSON INTL   LGT RAIN  62  57  83 W8        29.91F
6HR MIN TEMP:  59; 6HR MAX TEMP:  63; 6HR PCP:  0.04;

JACKSON HAWKNS CLOUDY    62  56  80 SW9       29.92F
6HR MIN TEMP:  59; 6HR MAX TEMP:  63; 6HR PCP:  0.01;

MADISON        CLOUDY   N/A N/A N/A W5        29.92F
MERIDIAN KEY   CLOUDY    64  61  90 SE6       29.91F
6HR MIN TEMP:  62; 6HR MAX TEMP:  64; 6HR PCP:  0.13;

MERIDIAN NAS   LGT RAIN  63  59  87 SE9       29.94F
6HR MIN TEMP:  61; 6HR MAX TEMP:  63; 6HR PCP:  0.24;

VICKSBURG VKS  CLOUDY    63  57  82 VRB7G14   29.91F
$$

MSZ059>079-211900-
SOUTH MISSISSIPPI

CITY           SKY/WX    TMP DP  RH WIND       PRES   REMARKS
BROOKHAVEN     LGT RAIN N/A N/A N/A W8        29.94F
COLUMBIA       CLOUDY    66 N/A N/A W8G15     29.96F
HATTIESBURG    CLOUDY    63  59  87 VRB3      29.94F
6HR MIN TEMP:  60; 6HR MAX TEMP:  63; 6HR PCP:  0.25;

LAUREL         CLOUDY    61  61 100 SW5       29.94F
MCCOMB         MOSUNNY   65  56  72 W9G18     29.94F
6HR MIN TEMP:  59; 6HR MAX TEMP:  65; 6HR PCP:  0.01;

NATCHEZ        MOSUNNY   63  57  82 W7        29.94F
6HR MIN TEMP:  57; 6HR MAX TEMP:  63; 6HR PCP:  0.04;

PINE BELT      CLOUDY    61  55  82 SW5       29.95F
6HR MIN TEMP:  59; 6HR MAX TEMP:  61; 6HR PCP:  0.24;

$$

MSZ080>082-211900-
COASTAL MISSISSIPPI

CITY           SKY/WX    TMP DP  RH WIND       PRES   REMARKS
BAY ST LOUIS   PTSUNNY   64  55  72 W9        29.94F
BILOXI         CLOUDY    63  61  94 CALM      29.93F
6HR MIN TEMP:  62; 6HR MAX TEMP:  65; 6HR PCP:  0.25;

PASCAGOULA     CLOUDY    64  61  90 CALM      29.94F
6HR MIN TEMP:  61; 6HR MAX TEMP:  64; 6HR PCP:  0.03;

GULFPORT       CLOUDY    63  60  90 W7        29.94F
6HR MIN TEMP:  62; 6HR MAX TEMP:  65; 6HR PCP:  0.14;

$$

LAZ007>009-015>016-023>026-211900-
NORTHEAST LOUISIANA

CITY           SKY/WX    TMP DP  RH WIND       PRES   REMARKS
BASTROP        CLOUDY    64  59  86 W6        29.91F
TALLULAH/VBURG CLOUDY    64  57  78 W9G17     29.92F
6HR MIN TEMP:  59; 6HR MAX TEMP:  65; 6HR PCP:  0.09;

VIDALIA        FAIR      65  57  74 SW8       29.93F
$$



USA.gov is the U.S. government's official web portal to all federal, state and local government web resources and services.